Regional Weather Roundup
Issued by NWS

Home | Current Version | Previous Version | Text Only | Print | Product List | Glossary Off
Versions: 1 2 3 4 5 6 7 8 9 10 11 12 13 14 15 16 17 18 19 20 21 22 23 24 25 26 27 28 29 30 31 32 33 34 35 36 37 38 39 40 41 42 43 44 45 46 47 48 49 50

000
ASUS43 KFSD 072210
RWRSD

WEATHER ROUNDUP FOR SOUTH DAKOTA
NATIONAL WEATHER SERVICE SIOUX FALLS SD
400 PM CST SUN FEB 07 2016

NOTE: "FAIR" INDICATES FEW OR NO CLOUDS BELOW 12,000 FEET WITH NO
SIGNIFICANT WEATHER AND/OR OBSTRUCTIONS TO VISIBILITY.


SDZ001>005-009-010-012>017-072300-
NORTHWEST AND NORTH CENTRAL SOUTH DAKOTA

CITY           SKY/WX    TMP DP  RH WIND       PRES   REMARKS
BUFFALO          N/A     37  10  32 NW52G61   30.09R
FAITH            N/A     36  12  37 NW45G58   30.10R
MOBRIDGE       CLOUDY    36  19  50 NW41G53   29.97R
$$

SDZ012>016-024>037-041>051-057-063-072>074-072300-
SOUTHWEST AND SOUTH CENTRAL SOUTH DAKOTA

CITY           SKY/WX    TMP DP  RH WIND       PRES   REMARKS
RAPID CTY ARPT SUNNY     39   5  24 NW47G61   30.17R
PIERRE         CLOUDY    38  17  42 NW36G46   30.02R
CUSTER         PTSUNNY   27   1  32 NW28G45   30.16R WCI  11
ELLSWORTH AFB  SUNNY     38   6  26 NW44G61   30.15R
PHILIP         LGT RAIN  40  18  41 NW44G61   30.07R
PINE RIDGE     MOSUNNY   38   2  22 NW30G44   30.19R
SPEARFISH      HVY SNOW  32   5  32 NW38G51   30.23R WCI  16
WINNER         CLOUDY    40  21  46 NW36G46   30.03R
$$

SDZ004>011-016>023-039-040-072300-
NORTHEAST SOUTH DAKOTA

CITY           SKY/WX    TMP DP  RH WIND       PRES   REMARKS
ABERDEEN       CLOUDY    30  17  58 N32G46    29.92R WCI  14
WATERTOWN      LGT SNOW  27  20  75 NW29G44   29.83R WCI  11
SISSETON         N/A     28  20  71 N28G46    29.80R WCI  13
$$

SDZ017-020-022-023-036>040-048>070-072300-
SOUTHEAST SOUTH DAKOTA

CITY           SKY/WX    TMP DP  RH WIND       PRES   REMARKS
SIOUX FALLS    CLOUDY    33  24  69 NW30G43   29.85R WCI  19
HURON          FLURRIES  31  23  72 NW26G40   29.92R WCI  17
CHAMBERLAIN    CLOUDY    36  22  58 NW26G36   30.00R
MITCHELL       CLOUDY    34  25  69 NW31G46   29.95R WCI  20
YANKTON        CLOUDY    34  27  75 NW31G39   29.94R WCI  20
$$

ABBREVIATIONS USED IN REMARKS
   TC - TEMPERATURE IN CELSIUS
  WCI - WIND CHILL INDEX
   HX - HEAT INDEX
  VSB - VISIBILITY




USA.gov is the U.S. government's official web portal to all federal, state and local government web resources and services.